Regional Weather Roundup
Issued by NWS

Home | Current Version | Previous Version | Text Only | Print | Product List | Glossary Off
Versions: 1 2 3 4 5 6 7 8 9 10 11 12 13 14 15 16 17 18 19 20 21 22 23 24 25 26 27 28 29 30 31 32 33 34 35 36 37 38 39 40 41 42 43 44 45 46 47 48 49 50

000
ASUS43 KBIS 221502
RWRND

NORTH DAKOTA REGIONAL WEATHER ROUNDUP
NATIONAL WEATHER SERVICE BISMARCK ND
1000 AM CDT SAT APR 22 2017

NOTE: "FAIR" INDICATES FEW OR NO CLOUDS BELOW 12,000 FEET WITH NO
SIGNIFICANT WEATHER AND/OR OBSTRUCTIONS TO VISIBILITY.


NDZ001>003-009>011-017-221600-
NORTHWEST NORTH DAKOTA

CITY           SKY/WX    TMP DP  RH WIND       PRES   REMARKS
WILLISTON      CLOUDY    47  42  83 NE9       30.20S
MINOT          CLOUDY    42  41  96 N15       30.19R FOG
MINOT AFB      CLOUDY    40  39  99 N14       30.19R
$$

NDZ018>021-031>035-040>046-221600-
SOUTHWEST NORTH DAKOTA

CITY           SKY/WX    TMP DP  RH WIND       PRES   REMARKS
BISMARCK       FAIR      57  39  51 SW6       30.20F
DICKINSON      FAIR      51  40  65 W12       30.17F
GARRISON         N/A     52  40  63 W10       30.17S
HETTINGER ARPT SUNNY     50  39  66 W10       30.22S
$$

NDZ004>008-012>016-024-026-027-054-221600-
NORTHEAST NORTH DAKOTA

CITY           SKY/WX    TMP DP  RH WIND       PRES   REMARKS
GRAND FORKS    MOSUNNY   55  44  66 NW8       30.16F
GRND FRKS AFB  MOSUNNY   53  42  66 N8        30.17F
DEVILS LAKE    PTSUNNY   54  41  61 NW15      30.17S
$$

NDZ022-023-025-028>030-036>039-047>053-221600-
SOUTHEAST NORTH DAKOTA

CITY           SKY/WX    TMP DP  RH WIND       PRES   REMARKS
FARGO          MOSUNNY   58  41  53 SW15      30.19F
JAMESTOWN      FAIR      56  41  57 W13       30.19F
$$





USA.gov is the U.S. government's official web portal to all federal, state and local government web resources and services.